weather.gov     
National Weather Service

Terminal Aerodrome Forecast
NWS Homepage
This page is being discontinued on March 12, 2014.
The same data is available at this site. Please update your bookmarks.
Thank you, and we apologize for the inconvenience.
Please send an email to SR-SRH.Webmaster@noaa.gov with any concerns.


Current Version
Previous Version:    01  02  03  04  05  06  07  08  09  10  11  12  13  14  15  16  17  18  19  20  21  22  23  24  25  26  27  
[Printable]
483
FTUS44 KOUN 212334
TAFOKC
TAF
KOKC 212334Z 2200/2224 17008KT P6SM BKN030
     FM220300 15007KT 4SM BR OVC012
      TEMPO 2205/2209 2SM -SHRA BR OVC008
     FM220900 16012KT 2SM -SHRA BR OVC004
      TEMPO 2215/2219 17014KT 2SM -TSRA BKN004 OVC010CB=




483
FTUS44 KOUN 212334
TAFOKC
TAF
KOKC 212334Z 2200/2224 17008KT P6SM BKN030
     FM220300 15007KT 4SM BR OVC012
      TEMPO 2205/2209 2SM -SHRA BR OVC008
     FM220900 16012KT 2SM -SHRA BR OVC004
      TEMPO 2215/2219 17014KT 2SM -TSRA BKN004 OVC010CB=


U.S. Dept. of Commerce
NOAA National Weather Service
1325 East West Highway
Silver Spring, MD 20910
E-mail: w-nws.webmaster@noaa.gov
Page last modified: May 16, 2007
NATIONAL WEATHER SERVICE: for Safety, for Work, for Fun - FOR LIFE